Location: Shenandoah County Park
(38.9356°N, 78.4524°W)
Time: 15:08:31
(UTC-05:00)

Vanguard 2 Rocket - Pass Details

Date: 10 December 2023
Orbit: 555 x 3309 km, 32.9° (Epoch: 03 March)

Event Time Altitude Azimuth Distance (km) Brightness Sun altitude
Rises 13:48:14 0° 246° (WSW) 5,505 11.6 23.7°
Reaches altitude 10° 13:51:21 10° 243° (WSW) 4,808 11.6 23.4°
Maximum altitude 14:06:15 67° 165° (SSE) 3,203 10.3 22.1°
Drops below altitude 10° 14:26:19 10° 89° (E) 6,224 10.9 20.0°
Sets 14:31:00 0° 88° (E) 7,136 11.1 19.5°
